Flag for U.S.A. Weather past 2 weeks in Bristol, Tennessee, U.S.A.

Now
72 °F

Fog.


Feels Like: 69 °F
Forecast: 64 / 75 °F
Wind: 3 mph from West

Location: Abingdon-Southwest Abingdon

Current Time: Jul 24, 2014 at 10:12:00 AM

Latest Report: Jul 24, 2014 at 9:35 AM


Visibility: 4 mi

Pressure: 30.03 "Hg

Humidity: 93%

Dew point: 70 °F

Location of BristolLocation

Historic Weather in Bristol — Graph

°F

Bristol temperature yesterday

Maximum temperature yesterday: 83 °F (at 3:55 PM)
Minimum temperature yesterday: 67 °F (at 5:55 AM)
Average temperature yesterday: 76 °F

Past Weeks' High & Low Weather Summary

 TemperatureHumidityPressure
High88 °F (Jul 11, 3:55 PM)100% (Jul 24, 4:15 AM)30.28 "Hg (Jul 24, 4:15 AM)
Low54 °F (Jul 17, 4:35 AM)27% (Jul 11, 3:55 PM)29.89 "Hg (Jul 15, 3:15 PM)
Average72 °F77%30.12 "Hg
* Reported Jul 9 8:55 AM — Jul 24 8:55 AM, Bristol, Weather by CustomWeather, © 2014

Note: Actual official high and low records may vary slightly from our data, if they occured in-between our weather recording intervals... More about our weather records

Advertising

Bristol weather history for previous 24 hours

 ConditionsComfort  
Time TempWeatherWind HumidityBarometerVisibility
8:55 AM
Jul 24
72 °FFog.No wind93%30.02 "Hg4 mi
8:35 AM71 °FFog.No wind95%30.02 "Hg4 mi
7:55 AM71 °FFog.No wind99%30.02 "Hg3 mi
7:35 AM70 °FFog.3 mph99%30.02 "Hg2 mi
7:15 AM70 °FFog.No wind99%30.01 "Hg1 mi
6:55 AM70 °FFog.No wind99%30.01 "Hg2 mi
6:35 AM70 °FFog.No wind99%30.01 "Hg3 mi
6:15 AM69 °FFog.No wind100%30.01 "Hg3 mi
5:55 AM70 °FLight rain. Partly cloudy.No wind100%30.00 "Hg4 mi
5:35 AM70 °FPartly cloudy.No wind100%30.00 "Hg2 mi
5:15 AM70 °FLight rain. Mostly cloudy.No wind100%30.00 "Hg3 mi
4:55 AM70 °FFog.No wind99%30.00 "Hg3 mi
4:35 AM69 °FFog.No wind100%29.99 "Hg3 mi
4:15 AM69 °FFog.No wind100%29.99 "Hg3 mi
3:55 AM70 °FFog.No wind99%30.00 "Hg3 mi
3:35 AM70 °FFog.5 mph98%30.00 "Hg3 mi
3:15 AM70 °FFog.5 mph99%30.01 "Hg5 mi
2:55 AM70 °FFog.No wind97%30.02 "Hg5 mi
2:35 AM70 °FFog.No wind98%30.03 "Hg5 mi
2:20 AM70 °FFog.3 mph99%30.03 "Hg5 mi
1:35 AM70 °FFog.No wind98%30.05 "Hg5 mi
1:15 AM71 °FClear.No wind97%30.06 "Hg7 mi
12:55 AM71 °FPassing clouds.No wind97%30.06 "Hg7 mi
12:35 AM70 °FPassing clouds.3 mph98%30.06 "Hg7 mi
12:15 AM70 °FFog.No wind97%30.06 "Hg5 mi
11:55 PM
Jul 23
70 °FClear.No wind97%30.06 "Hg7 mi
11:35 PM71 °FClear.No wind95%30.06 "Hg7 mi
11:15 PM72 °FClear.No wind93%30.06 "Hg10 mi
10:55 PM73 °FClear.No wind91%30.06 "Hg10 mi
10:35 PM72 °FClear.No wind93%30.06 "Hg10 mi
10:15 PM73 °FClear.No wind89%30.06 "Hg10 mi
9:55 PM73 °FPassing clouds.No wind89%30.05 "Hg10 mi
9:35 PM74 °FBroken clouds.3 mph87%30.05 "Hg10 mi
8:55 PM75 °FScattered clouds.3 mph83%30.05 "Hg10 mi
8:35 PM75 °FSunny.3 mph81%30.03 "Hg10 mi
8:15 PM76 °FSunny.No wind81%30.02 "Hg10 mi
7:55 PM76 °FSunny.5 mph77%30.02 "Hg10 mi
7:35 PM76 °FSunny.No wind79%30.03 "Hg10 mi
7:15 PM77 °FSunny.No wind76%30.03 "Hg10 mi
6:55 PM77 °FSunny.3 mph74%30.04 "Hg10 mi
6:35 PM77 °FSunny.5 mph73%30.05 "Hg10 mi
6:15 PM78 °FSunny.3 mph76%30.06 "Hg10 mi
5:55 PM79 °FSunny.6 mph73%30.06 "Hg10 mi
5:35 PM79 °FSunny.8 mph74%30.06 "Hg10 mi
5:15 PM78 °FScattered clouds.3 mph82%30.07 "Hg10 mi
4:55 PM78 °FPartly sunny.8 mph82%30.07 "Hg10 mi
4:35 PM80 °FScattered clouds.10 mph70%30.08 "Hg10 mi
4:15 PM81 °FMostly cloudy.9 mph72%30.07 "Hg10 mi
3:55 PM83 °FThundershowers. Mostly cloudy.8 mph69%30.07 "Hg10 mi
3:15 PM81 °FScattered clouds.7 mph69%30.10 "Hg10 mi
2:55 PM81 °FMostly cloudy.6 mph73%30.10 "Hg7 mi
2:35 PM81 °FOvercast.7 mph72%30.11 "Hg10 mi
2:15 PM80 °FMostly cloudy.No wind75%30.12 "Hg10 mi
1:55 PM80 °FMostly cloudy.3 mph76%30.13 "Hg10 mi
1:35 PM80 °FOvercast.8 mph79%30.14 "Hg10 mi
1:15 PM80 °FMostly cloudy.10 mph75%30.15 "Hg10 mi
12:55 PM80 °FBroken clouds.8 mph76%30.15 "Hg10 mi
12:35 PM78 °FBroken clouds.9 mph79%30.15 "Hg10 mi
12:15 PM78 °FBroken clouds.10 mph78%30.15 "Hg10 mi
11:55 AM77 °FMostly cloudy.7 mph79%30.16 "Hg10 mi
11:35 AM78 °FOvercast.6 mph80%30.16 "Hg10 mi
11:15 AM76 °FOvercast.8 mph82%30.17 "Hg10 mi
10:55 AM77 °FOvercast.7 mph80%30.17 "Hg10 mi
10:35 AM77 °FOvercast.7 mph80%30.17 "Hg10 mi
10:15 AM77 °FOvercast.5 mph81%30.17 "Hg10 mi
Weather by CustomWeather, © 2014

See weather overviewHow to use our weather pages